Dewpoint
-31 -33 -35 -35 -35 -36 -36 -36 -35 -33 -31 -29 -28 -28 -27 -27 -27 -26 -9 -4 -6 -6 -9 -5 -6 -5 -0 2 1 -0 1 2 -0 -4 -5 -6 -4 -3 -3 -6 -4 -5 -3 -1 8
-36 -37 -37 -37 -37 -37 -37 -37 -37 -37 -36 -36 -34 -31 -28 -28 -29 -2 3 1 -4 -3 -4 -6 -6 -4 2 2 1 0 2 1 -2 -5 -6 -4 -4 -3 -3 -2 -1 1 -3 1 8
-37 -37 -37 -37 -36 -36 -37 -36 -36 -36 -37 -37 -37 -36 -36 -30 -21 1 -2 -5 -5 -3 -4 -4 -2 -1 3 1 1 1 1 -1 -2 -4 -4 -3 -3 -1 -2 -2 -2 3 2 6 8
-38 -37 -37 -37 -37 -37 -37 -37 -36 -36 -36 -36 -37 -37 -37 -35 -21 -2 -5 -8 -7 -4 -1 -0 2 3 2 2 1 2 1 -1 -2 -4 -3 -4 -4 -3 -1 -2 -3 -2 1 6 7
-37 -37 -37 -37 -37 -37 -37 -37 -36 -34 -33 -33 -33 -35 -35 -26 -12 -6 -3 -4 -4 4 2 1 3 4 2 1 1 1 0 0 -0 -1 -1 -2 -2 -2 -3 -4 -2 -0 7 7 6
-37 -37 -37 -37 -37 -37 -37 -36 -35 -34 -27 -26 -25 -26 -24 -19 -3 -2 -4 -5 -6 -4 2 3 2 -1 3 1 1 0 1 -0 -0 -1 -1 -1 -2 -2 -3 -4 -4 -2 -1 5 6
-37 -37 -37 -37 -37 -37 -36 -36 -35 -29 -28 -30 -16 -14 -11 -1 -2 -6 -9 -4 -3 -3 -4 -2 4 3 1 1 0 -0 1 0 -0 -1 -1 -2 -0 -1 -2 -3 -4 -4 -4 -3 -2
-37 -37 -37 -37 -37 -36 -36 -35 -33 -20 -26 -15 -6 -4 -5 -3 -10 -10 -6 -7 -8 -6 -4 -4 -4 2 3 2 2 -0 0 3 -1 -1 -2 -2 1 -2 -3 -3 -3 -3 -3 -4 -5
-37 -37 -37 -37 -37 -36 -36 -34 -27 -18 -18 -9 -7 -5 -3 -10 -10 -5 -12 -5 -4 -11 -7 -5 -2 0 3 4 4 1 3 2 0 -2 -2 -1 0 -3 -3 -3 -3 -3 -3 -3 -4
-36 -36 -36 -37 -37 -36 -36 -34 -18 -15 -13 -9 -7 -8 -8 -11 -22 -11 -12 -12 -5 -4 -6 -1 -1 4 5 3 4 4 3 1 1 -2 -2 -1 -1 -3 -4 -3 -3 -3 -4 -4 -3
-35 -35 -36 -36 -36 -36 -35 -32 -25 -23 -5 -6 -7 -7 -10 -23 -21 -13 -13 -9 -10 -6 -0 -2 5 5 5 2 2 3 2 2 0 -2 -1 0 -1 -2 -3 -3 -4 -4 -4 -4 -4
-35 -35 -35 -35 -35 -30 -30 -11 -7 -9 -6 -5 -6 -12 -18 -16 -15 -13 -15 -10 -3 -1 -1 -1 0 -1 3 4 4 4 4 4 -0 -2 -0 1 0 -3 -4 -3 -4 -4 -4 -4 -4
-34 -35 -35 -35 -35 -34 -20 -7 -4 -3 -4 -6 -8 -18 -16 -17 -13 -12 -16 -11 -1 -1 -1 1 -2 -4 -2 2 4 5 5 3 3 -1 -1 -0 1 -3 -5 -3 -1 0 0 -1 -2
-35 -35 -35 -35 -34 -33 -25 -16 -3 -3 -5 -6 -10 -14 -16 -18 -14 -14 -15 -12 -6 -1 -1 0 -2 -4 -2 0 -1 3 4 3 4 4 5 -1 4 -3 -4 1 1 1 1 1 1
-35 -35 -35 -33 -32 -28 -21 -18 -4 -2 -13 -10 -11 -18 -15 -15 -13 -15 -14 -15 -5 -5 -6 -5 -6 -2 -1 -3 1 2 1 4 4 5 2 0 2 -0 -4 4 2 -0 0 0 0
-36 -36 -36 -32 -28 -28 -24 -15 -3 -8 -17 -10 -14 -13 -14 -15 -14 -16 -12 -16 -12 -8 -8 -10 -11 -9 -6 -6 -2 -1 4 4 5 5 5 2 2 1 0 3 1 -1 -1 -1 -1
-36 -36 -35 -31 -24 -27 -27 -13 -9 -7 -17 -13 -13 -14 -13 -13 -14 -14 -9 -8 -11 -9 -11 -10 -8 -7 -13 -3 -5 -0 3 1 4 5 4 1 3 2 1 -0 -1 -2 -3 -3 -2
-36 -36 -33 -19 -20 -24 -24 -19 -18 -13 -10 -13 -13 -14 -11 -13 -14 -14 -11 -8 -12 -10 -6 -6 -8 -11 -16 -5 -5 -5 -1 3 1 -0 1 0 5 1 -1 -2 -3 -4 -4 -4 -4
-35 -34 -22 -16 -18 -22 -19 -14 -16 -10 -12 -13 -14 -12 -12 -13 -13 -12 -12 -8 -9 -12 -10 -8 -10 -14 -15 -14 -3 -3 -1 -3 2 1 1 3 0 -3 -3 -3 -4 -4 -5 -5 -5
-31 -29 -15 -16 -19 -20 -16 -17 -14 -13 -13 -12 -12 -13 -10 -11 -10 -12 -10 -11 -7 -10 -11 -10 -6 -15 -13 -8 -8 -4 -4 -3 1 5 3 4 -2 -5 -7 -5 -6 -6 -6 -6 -6
-26 -20 -14 -15 -18 -18 -12 -12 -13 -14 -13 -11 -11 -11 -11 -10 -12 -11 -11 -11 -9 -9 -8 -9 -10 -12 -12 -8 -5 -6 -5 -5 -4 -2 2 -0 -6 -7 -7 -7 -7 -8 -7 -8 -8
-15 -22 -13 -15 -14 -12 -11 -11 -13 -12 -13 -11 -12 -11 -11 -12 -10 -11 -9 -8 -10 -11 -9 -13 -14 -8 -11 -7 -6 -5 -7 -6 -5 -3 -3 -5 -8 -8 -8 -9 -9 -9 -8 -9 -8
-9 -10 -13 -16 -11 -11 -13 -12 -12 -13 -13 -13 -12 -12 -14 -12 -9 -9 -9 -13 -12 -11 -9 -11 -14 -12 -13 -15 -12 -7 -9 -9 -8 -6 -8 -6 -8 -9 -10 -10 -10 -9 -9 -9 -9
-11 -10 -11 -13 -12 -11 -10 -10 -11 -12 -11 -12 -13 -13 -12 -10 -11 -8 -10 -13 -12 -12 -11 -13 -14 -16 -10 -11 -11 -9 -10 -10 -9 -7 -9 -10 -10 -10 -10 -11 -11 -10 -10 -10 -10
-10 -10 -10 -10 -11 -10 -10 -11 -10 -9 -9 -11 -10 -11 -10 -9 -11 -11 -12 -11 -11 -11 -14 -13 -13 -11 -9 -10 -10 -10 -11 -11 -11 -10 -9 -11 -12 -11 -11 -11 -11 -11 -11 -11 -10
-7 -9 -8 -9 -9 -9 -11 -11 -10 -10 -8 -9 -9 -11 -10 -11 -10 -10 -10 -8 -8 -10 -10 -11 -13 -10 -7 -9 -11 -11 -12 -13 -12 -12 -11 -11 -12 -12 -12 -12 -12 -12 -12 -11 -11
-6 -6 -6 -7 -9 -10 -10 -12 -10 -10 -12 -12 -12 -11 -10 -10 -11 -12 -12 -11 -11 -11 -10 -10 -13 -11 -10 -10 -9 -14 -11 -12 -13 -13 -12 -13 -12 -12 -12 -13 -13 -12 -12 -12 -12
Wind_Speed
12 12 13 14 14 15 15 16 16 16 16 16 15 15 15 15 16 19 11 8 9 8 12 10 12 15 15 12 10 8 1 4 6 7 6 3 4 4 4 7 8 9 8 8 27
14 15 16 16 16 16 16 16 16 16 16 16 16 15 15 15 16 12 9 9 8 6 10 12 13 16 10 10 11 7 5 10 7 5 4 3 4 4 4 5 3 8 11 15 29
16 17 18 18 18 18 18 18 18 17 16 16 16 15 14 14 8 4 7 8 8 6 10 10 9 16 7 8 12 8 8 6 7 17 5 4 3 3 3 4 8 14 19 27 32
17 18 19 19 20 21 21 22 20 18 17 15 15 14 12 8 1 5 11 12 13 5 9 12 12 7 5 9 15 5 14 9 12 18 6 3 8 5 9 4 3 13 20 29 29
19 20 21 21 22 23 24 24 21 19 18 17 15 14 9 3 4 11 14 12 8 3 8 14 17 13 6 6 13 7 6 14 31 26 23 24 13 11 16 16 10 8 20 24 25
20 21 21 22 23 24 25 24 21 20 17 15 13 12 6 6 6 9 16 16 14 11 11 14 16 20 10 8 10 5 20 27 20 20 14 7 11 14 7 20 18 17 18 22 26
20 20 21 22 24 24 24 22 21 15 17 17 11 7 10 7 8 16 21 14 14 13 18 20 19 23 4 7 16 20 14 13 16 11 11 9 12 19 27 21 18 21 24 25 27
19 20 21 21 23 24 23 21 21 10 18 15 13 9 7 11 19 17 19 18 17 17 16 17 22 21 24 20 10 5 4 15 11 12 10 15 20 6 26 30 33 33 33 31 31
20 21 22 22 24 23 22 17 14 10 13 10 8 6 3 10 21 20 27 26 22 19 16 17 16 17 8 11 10 7 8 8 9 8 6 16 6 13 25 19 23 29 36 38 35
19 21 23 23 24 24 24 13 8 9 14 4 10 6 12 17 19 24 21 20 22 19 14 7 11 9 10 11 21 14 4 5 6 5 15 11 16 8 10 10 27 29 27 26 31
17 20 23 24 24 26 26 14 10 2 17 8 7 5 13 22 12 22 28 17 23 14 5 11 6 16 19 19 20 17 8 13 5 10 2 9 10 12 17 13 13 16 19 20 28
17 19 21 23 19 24 26 17 11 6 7 4 3 7 11 20 5 27 28 16 8 5 8 5 10 13 13 16 21 22 22 22 3 2 4 6 14 10 10 6 21 18 14 11 9
19 19 20 20 15 22 23 18 10 8 2 3 3 12 14 15 7 22 30 13 3 4 7 6 12 19 18 15 15 16 22 25 14 4 6 3 12 7 9 2 5 6 5 3 2
19 20 21 20 12 21 18 20 9 7 4 3 5 7 15 7 3 18 26 12 4 6 7 9 6 11 14 16 12 17 11 17 13 8 11 13 14 6 11 5 7 10 12 9 6
19 20 20 18 14 18 20 21 3 3 5 2 2 6 10 9 10 15 22 9 5 7 3 6 15 15 16 12 8 12 10 10 13 11 7 6 5 5 6 4 4 9 13 13 12
19 20 19 16 12 17 19 17 2 5 6 2 4 7 7 12 7 13 12 10 2 4 2 11 17 5 6 18 14 10 8 6 6 5 10 18 14 3 1 3 6 11 16 16 14
19 19 18 15 12 14 16 8 4 4 4 4 3 5 7 7 5 7 6 5 2 5 9 7 6 7 18 11 10 7 6 3 7 6 5 11 10 5 9 13 12 11 16 17 16
19 18 15 6 9 13 14 5 2 3 3 3 5 9 2 9 3 6 5 4 3 2 3 3 7 13 17 7 7 17 7 4 13 12 10 6 9 5 12 17 17 17 15 17 19
19 15 4 4 11 13 4 3 3 2 2 6 7 3 2 9 2 5 4 3 4 4 2 2 5 17 14 15 5 7 7 10 6 4 4 8 6 9 13 12 15 17 19 20 19
17 9 2 9 13 6 4 1 1 2 3 1 3 1 3 7 5 6 3 3 3 3 4 4 5 9 9 8 6 4 9 4 4 8 18 6 5 4 12 12 14 16 21 21 20
10 1 7 9 7 4 3 1 3 3 3 3 2 5 5 3 5 4 5 4 4 6 4 2 3 7 3 4 9 5 4 4 5 4 4 6 4 7 8 11 12 16 20 21 22
7 2 12 10 6 3 1 2 4 4 6 6 4 4 3 3 4 4 4 3 6 10 5 3 3 3 5 6 3 4 5 5 3 5 4 3 4 7 10 13 16 17 19 21 23
10 5 8 8 3 2 4 4 4 2 3 3 3 3 1 3 4 5 3 6 8 5 3 3 1 3 8 6 5 4 7 7 8 4 4 2 3 8 12 14 18 18 20 22 24
7 3 4 7 5 3 1 3 2 5 7 3 3 4 2 3 5 5 8 7 10 10 4 2 3 6 4 6 3 4 12 14 4 3 3 6 6 11 11 13 18 20 21 22 24
5 1 1 3 1 1 1 2 3 3 3 3 3 5 4 4 6 7 4 5 9 4 2 3 1 2 0 10 12 9 8 13 16 11 5 4 5 9 9 10 17 19 21 23 25
4 3 3 5 6 3 3 4 5 3 4 4 4 6 3 6 8 11 3 3 5 3 2 2 2 1 3 9 13 13 12 8 10 9 6 5 4 8 11 15 21 22 22 24 25
6 9 8 5 3 4 5 6 6 4 7 11 7 3 6 11 16 19 19 16 9 3 2 2 3 2 3 11 7 6 7 7 7 10 3 6 4 8 4 16 22 23 24 25 26
Wind_Direction
0 357 355 353 347 343 337 332 327 323 319 315 316 316 317 320 329 325 348 342 319 280 234 217 200 201 195 202 196 184 123 226 238 176 243 243 217 207 199 182 189 194 188 215 175
15 12 9 5 1 356 349 342 333 325 318 312 309 310 315 323 340 79 21 351 344 282 242 225 217 196 195 205 198 175 180 219 213 204 242 274 215 224 191 177 177 179 193 181 180
24 22 17 14 9 4 358 351 343 335 327 319 314 312 314 324 340 34 335 326 312 296 248 225 231 203 222 211 203 201 220 219 241 232 271 264 258 227 199 225 203 195 180 177 180
29 24 20 18 11 6 1 353 346 340 333 327 319 316 315 331 46 328 305 310 317 289 239 231 224 201 216 217 215 242 234 213 235 226 268 266 309 282 227 236 272 203 191 179 183
29 23 22 19 12 8 2 355 349 347 342 339 333 325 332 45 36 311 313 304 320 276 266 249 226 220 201 208 226 241 242 236 239 248 260 277 264 255 257 247 232 174 190 192 194
28 22 20 17 13 9 2 354 350 346 351 357 348 334 7 75 333 344 336 314 302 286 266 248 236 244 272 231 199 246 228 242 250 243 242 234 258 246 258 251 240 221 210 210 212
26 19 16 16 13 6 359 350 343 345 353 351 355 359 84 38 7 345 333 328 321 318 297 255 247 252 286 272 281 250 270 274 245 227 227 241 262 241 244 240 248 241 239 233 227
23 17 13 13 10 6 2 352 337 355 358 7 31 49 90 36 357 349 351 339 307 295 296 278 248 253 249 268 306 273 199 241 254 207 224 187 250 239 239 236 246 248 248 246 242
17 14 10 10 7 5 4 352 342 14 9 11 28 51 55 12 16 14 359 350 341 322 285 285 245 227 232 224 271 220 245 235 261 207 180 191 236 242 238 226 238 247 249 246 246
12 9 9 6 3 4 6 0 345 28 2 34 29 90 25 349 357 359 347 352 354 349 335 230 207 216 212 210 228 234 257 253 209 218 209 225 244 281 254 237 237 245 246 251 246
6 7 6 2 1 2 6 26 34 292 47 67 61 48 348 346 18 357 4 357 358 10 6 303 290 232 231 222 244 262 255 242 247 231 95 263 283 266 264 255 252 252 243 246 247
1 4 3 0 358 3 5 45 44 340 321 61 75 27 10 347 350 12 6 22 6 336 336 335 262 283 292 279 230 229 243 255 276 245 174 261 277 252 263 232 232 245 272 262 252
356 357 359 356 351 2 17 26 357 347 334 280 49 22 18 342 23 3 14 354 333 311 318 267 275 292 294 277 288 257 229 240 238 241 243 194 266 243 265 151 63 39 64 82 251
350 350 350 355 356 356 2 359 330 342 40 280 345 11 1 6 55 9 8 357 318 309 319 271 297 332 315 292 267 279 259 243 239 218 233 206 263 247 240 133 64 48 52 52 68
341 343 343 349 346 356 345 347 338 13 5 46 21 4 22 53 328 357 6 356 334 307 317 270 310 309 310 293 306 266 250 263 214 214 228 199 234 241 179 164 104 54 51 47 43
336 335 335 334 339 347 345 346 22 47 259 2 21 360 0 22 348 345 4 18 284 318 351 289 283 281 327 310 284 236 276 248 267 202 224 212 211 242 52 153 100 70 52 44 45
332 329 328 326 332 342 341 332 25 140 3 7 353 353 341 351 340 359 355 358 41 4 341 317 319 2 357 328 327 346 241 245 220 223 225 184 201 92 63 66 89 76 55 44 42
330 327 326 330 342 344 343 52 166 38 22 17 346 322 289 15 335 333 344 346 345 82 291 349 332 8 346 339 274 298 260 248 212 216 237 177 183 74 87 78 72 68 59 46 37
331 325 332 346 337 335 342 75 241 19 325 334 320 296 302 1 290 351 310 237 239 172 136 325 290 317 324 327 351 339 313 326 295 346 124 129 97 59 17 62 51 46 44 35 29
334 328 26 339 338 335 81 237 302 49 333 294 281 324 328 324 323 348 282 243 263 193 175 268 293 294 317 335 41 338 319 345 254 200 211 144 83 60 9 19 35 33 27 22 21
342 74 357 347 348 49 111 263 311 283 295 237 251 288 278 329 276 263 259 274 26 335 176 174 126 290 6 353 9 349 358 305 288 273 301 131 93 21 23 18 30 28 24 21 19
4 46 353 354 48 57 79 226 304 277 302 258 223 224 223 270 271 271 250 242 8 311 287 219 162 278 279 195 219 106 340 332 305 351 352 45 78 13 29 26 28 28 23 21 23
344 316 8 0 86 358 322 294 265 286 326 294 245 219 236 248 290 240 289 301 317 326 238 225 309 332 342 346 348 38 4 331 283 242 32 33 84 29 29 32 29 27 24 25 22
346 353 13 59 96 142 251 251 277 290 286 308 311 287 274 250 241 281 289 295 323 302 320 257 138 153 199 236 271 9 1 5 0 41 91 54 56 27 20 27 25 24 23 27 26
351 320 16 317 310 302 166 273 259 279 259 247 245 237 210 253 278 263 277 321 296 290 15 82 217 128 344 101 78 59 27 19 37 22 62 64 62 10 10 21 26 25 24 26 23
309 302 243 262 263 204 236 228 224 238 206 260 230 257 261 202 210 275 244 191 261 339 0 13 282 107 137 109 92 66 35 41 39 22 52 64 50 359 358 39 33 26 21 22 19
304 267 252 236 208 144 221 218 213 171 263 258 262 274 257 258 256 268 264 243 231 169 337 303 105 57 269 179 224 27 13 52 67 37 17 44 326 334 356 48 32 20 18 16 17
Height
1525 1523 1521 1519 1517 1515 1513 1510 1508 1507 1505 1504 1503 1501 1500 1498 1498 1496 1496 1498 1496 1495 1494 1494 1496 1497 1499 1501 1502 1503 1511 1514 1502 1500 1490 1481 1481 1479 1479 1479 1482 1481 1481 1482 1487
1525 1523 1520 1518 1515 1513 1511 1508 1506 1504 1502 1501 1499 1498 1497 1497 1496 1494 1497 1496 1495 1494 1494 1495 1495 1496 1497 1497 1499 1499 1507 1500 1489 1487 1485 1481 1480 1479 1479 1478 1479 1478 1480 1482 1485
1525 1523 1520 1517 1515 1513 1510 1507 1504 1501 1499 1497 1496 1495 1494 1495 1495 1495 1495 1494 1493 1493 1492 1494 1496 1497 1496 1495 1493 1491 1489 1487 1483 1482 1482 1481 1480 1478 1477 1478 1476 1476 1477 1480 1483
1526 1523 1520 1518 1515 1512 1509 1506 1502 1499 1497 1494 1493 1492 1491 1493 1497 1494 1492 1492 1491 1492 1492 1493 1494 1495 1494 1492 1489 1489 1480 1480 1478 1479 1480 1479 1478 1477 1475 1475 1474 1475 1477 1478 1481
1526 1524 1521 1518 1515 1512 1508 1505 1501 1497 1494 1492 1491 1489 1489 1492 1495 1493 1492 1490 1490 1490 1491 1491 1492 1493 1490 1485 1487 1484 1479 1476 1476 1477 1476 1477 1475 1476 1471 1472 1474 1475 1477 1478 1480
1526 1524 1521 1518 1515 1511 1507 1503 1499 1496 1493 1491 1489 1488 1488 1493 1495 1493 1490 1489 1488 1488 1488 1489 1489 1490 1487 1483 1482 1475 1473 1471 1472 1472 1473 1473 1471 1473 1466 1469 1471 1472 1474 1476 1478
1527 1524 1521 1518 1515 1512 1508 1503 1499 1495 1493 1490 1488 1486 1489 1495 1494 1492 1489 1487 1486 1485 1483 1484 1486 1488 1484 1481 1477 1473 1474 1469 1465 1465 1467 1471 1467 1457 1463 1466 1466 1468 1469 1471 1473
1528 1525 1522 1519 1515 1512 1508 1502 1497 1495 1491 1489 1488 1487 1491 1493 1493 1490 1485 1483 1483 1481 1479 1479 1481 1480 1480 1480 1474 1473 1470 1469 1452 1460 1459 1466 1450 1450 1454 1460 1458 1460 1462 1464 1466
1529 1526 1523 1519 1515 1511 1507 1502 1496 1495 1492 1490 1490 1490 1493 1493 1489 1488 1484 1480 1478 1475 1474 1473 1474 1474 1477 1478 1480 1472 1466 1464 1456 1452 1454 1455 1449 1444 1450 1451 1452 1453 1454 1456 1459
1530 1526 1522 1518 1515 1511 1506 1501 1496 1496 1493 1490 1490 1493 1495 1493 1490 1487 1484 1480 1476 1472 1470 1468 1468 1466 1465 1469 1458 1461 1470 1462 1456 1448 1449 1452 1446 1442 1444 1447 1446 1446 1447 1449 1450
1531 1526 1522 1518 1514 1510 1506 1501 1499 1497 1493 1495 1497 1497 1497 1495 1490 1486 1480 1478 1477 1475 1477 1470 1469 1458 1451 1454 1456 1458 1457 1454 1448 1447 1451 1452 1451 1445 1442 1443 1443 1442 1441 1442 1444
1531 1526 1522 1518 1515 1510 1506 1503 1508 1509 1501 1498 1498 1498 1497 1494 1491 1487 1483 1480 1480 1481 1477 1474 1466 1460 1456 1454 1449 1450 1450 1447 1450 1447 1448 1449 1449 1445 1438 1438 1438 1439 1441 1441 1442
1529 1526 1522 1519 1516 1512 1508 1508 1506 1506 1505 1500 1500 1499 1498 1494 1493 1491 1487 1482 1480 1480 1479 1479 1466 1460 1458 1455 1455 1445 1440 1436 1445 1444 1443 1445 1441 1443 1434 1435 1436 1437 1439 1438 1439
1528 1525 1522 1519 1517 1513 1510 1509 1507 1505 1508 1502 1500 1499 1497 1492 1493 1494 1490 1489 1485 1481 1479 1474 1460 1462 1458 1451 1448 1447 1439 1433 1438 1444 1446 1439 1438 1437 1430 1435 1441 1441 1440 1440 1439
1527 1524 1521 1517 1517 1514 1513 1507 1506 1507 1535 1502 1501 1500 1498 1497 1499 1494 1492 1488 1488 1487 1485 1477 1470 1466 1459 1450 1447 1438 1439 1436 1434 1439 1443 1436 1441 1428 1427 1436 1442 1444 1444 1443 1442
1526 1523 1520 1518 1516 1515 1511 1508 1507 1516 1532 1503 1503 1503 1501 1500 1499 1496 1494 1491 1489 1486 1482 1479 1470 1467 1462 1450 1442 1438 1438 1434 1430 1430 1428 1422 1429 1432 1431 1432 1444 1447 1447 1446 1446
1524 1521 1518 1516 1516 1513 1510 1509 1521 1527 1501 1506 1508 1506 1505 1504 1499 1499 1496 1498 1501 1499 1491 1480 1470 1467 1463 1454 1441 1442 1435 1443 1425 1416 1412 1412 1425 1442 1445 1444 1447 1449 1451 1451 1449
1522 1519 1515 1514 1513 1511 1509 1512 1526 1506 1510 1509 1508 1505 1505 1505 1502 1502 1501 1502 1501 1504 1500 1498 1488 1469 1468 1470 1466 1452 1448 1418 1420 1417 1407 1413 1415 1447 1452 1453 1454 1454 1455 1454 1452
1518 1516 1513 1513 1510 1509 1508 1526 1514 1515 1514 1512 1508 1508 1507 1507 1507 1506 1506 1506 1501 1501 1509 1509 1484 1472 1468 1465 1463 1453 1445 1444 1421 1413 1420 1416 1442 1449 1458 1457 1459 1459 1458 1458 1457
1514 1512 1512 1511 1508 1506 1509 1509 1514 1514 1514 1513 1516 1511 1513 1510 1510 1510 1506 1502 1499 1496 1496 1501 1497 1475 1469 1465 1463 1464 1458 1445 1420 1392 1388 1405 1439 1470 1472 1467 1467 1465 1464 1463 1461
1512 1510 1511 1509 1507 1507 1519 1520 1516 1514 1514 1514 1513 1513 1512 1513 1511 1510 1505 1500 1497 1495 1495 1497 1504 1483 1476 1484 1475 1468 1465 1460 1450 1431 1396 1413 1474 1483 1481 1478 1475 1472 1470 1468 1465
1512 1512 1511 1509 1511 1516 1523 1519 1516 1512 1512 1511 1509 1509 1509 1511 1510 1508 1505 1498 1498 1496 1496 1494 1507 1500 1481 1478 1475 1474 1477 1471 1458 1441 1440 1448 1488 1488 1486 1483 1479 1477 1474 1472 1469
1515 1512 1511 1509 1518 1520 1518 1517 1514 1512 1511 1509 1508 1507 1507 1509 1510 1503 1499 1496 1496 1494 1494 1491 1510 1511 1487 1491 1480 1478 1484 1481 1471 1460 1472 1459 1488 1491 1491 1487 1484 1481 1479 1475 1472
1519 1517 1514 1513 1517 1519 1519 1517 1514 1512 1510 1508 1507 1506 1506 1507 1506 1503 1499 1495 1493 1491 1488 1487 1504 1510 1513 1502 1499 1493 1491 1485 1471 1465 1483 1490 1497 1495 1497 1492 1487 1485 1483 1480 1476
1521 1519 1519 1519 1516 1518 1518 1515 1511 1511 1509 1507 1506 1504 1506 1506 1503 1501 1496 1495 1492 1488 1487 1489 1501 1499 1490 1495 1496 1497 1499 1494 1488 1489 1487 1504 1505 1503 1502 1498 1493 1491 1487 1483 1480
1522 1521 1519 1516 1514 1515 1514 1511 1508 1507 1509 1506 1506 1502 1502 1509 1503 1500 1497 1497 1495 1491 1489 1489 1502 1494 1492 1492 1496 1500 1502 1502 1502 1502 1504 1507 1510 1509 1510 1501 1495 1494 1492 1488 1485
1518 1518 1517 1513 1512 1513 1510 1505 1502 1504 1501 1501 1501 1500 1498 1495 1493 1491 1489 1490 1491 1493 1492 1494 1503 1502 1507 1489 1489 1509 1512 1510 1512 1512 1511 1514 1514 1510 1509 1501 1499 1498 1496 1493 1489